Tracking 19575 objects as of 21-Feb-2019
HD Live streaming from Space Station
objects crossing your sky now

SL-16 DEB

Track SL-16 DEB now!
10-day predictions


NORAD ID: 29096
Int'l Code: 1993-016AK
Perigee: 602.0 km
Apogee: 678.2 km
Inclination: 70.9 °
Period: 97.4 minutes
Semi major axis: 7011 km
RCS: 0.0071 m2 (small)
Launch date: March 26, 1993
Source: Commonwealth of Independent States (former USSR) (CIS)
Launch site: TYURATAM MISSILE AND SPACE COMPLEX (TTMTR)

Note: This is SATELLITE DEBRIS
aabbcc
Your satellite tracking list
Your tracking list is empty




NASA's NSSDC Master Catalog

Two Line Element Set (TLE):
1 29096U 93016AK  19041.17558489  .00002962  00000-0  40121-3 0  9997
2 29096  70.9175 331.6020 0054340 168.9452 191.2913 14.78862281790990
Source of the keplerian elements: AFSPC